Terminal Aerodrome Forecast
Issued by NWS Miami, FL

Home | Current Version | Previous Version | Text Only | Print | Product List | Glossary On
Versions: 1 2 3 4 5 6 7 8 9 10 11 12 13 14 15 16 17 18 19 20 21 22 23 24 25 26 27 28 29 30 31 32 33 34 35 36 37 38 39 40 41 42 43 44 45 46 47 48 49 50
000
FTUS42 KMFL 282109 AAA
TAFAPF
TAF AMD
KAPF 282109Z 2821/0118 27008KT P6SM VCTS SCT025CB BKN035
      TEMPO 2821/2823 3SM TSRA BKN020CB
     FM010000 05006KT P6SM SCT020 BKN030 BKN250
     FM011200 06004KT 6SM BR BKN250
     FM011400 08007KT P6SM SCT250
     FM011500 11009KT P6SM SCT015 BKN250=

USA.gov is the U.S. government's official web portal to all federal, state and local government web resources and services.